This demonstration page uses our WeatherBlox Daily Observations layout. Learn more.

Left ArrowRight Arrow

53.62937, 11.41316

Hourly Observations for January 28, 2016

Temp ( °F °C ) Dew Point ( °F °C ) Humidity (%) Winds ( mph kmh ) Pressure ( in mb ) Visibility ( mi km ) Precip ( " mm )
5:20 am 05:20 Mostly Cloudy 46 8 45 7 93 93 W 15 24 29.77 1008 30 48 N/A
5:50 am 05:50 Mostly Cloudy 46 8 43 6 87 87 W 15 24 29.80 1009 30 48 N/A
6:20 am 06:20 Mostly Cloudy with Light Rain 45 7 43 6 93 93 WSW 12 19 29.80 1009 30 48 N/A
6:50 am 06:50 Mostly Cloudy 45 7 43 6 93 93 WSW 12 19 29.83 1010 30 48 N/A
7:20 am 07:20 Mostly Cloudy with Light Rain 45 7 41 5 87 87 W 18 30 29.85 1011 30 48 N/A
7:50 am 07:50 Cloudy 45 7 41 5 87 87 W 20 31 29.88 1012 30 48 N/A
8:20 am 08:20 Cloudy 45 7 39 4 81 81 W 20 31 29.88 1012 30 48 N/A
8:50 am 08:50 Mostly Cloudy 45 7 39 4 81 81 W 16 26 29.94 1014 30 48 N/A
9:20 am 09:20 Mostly Cloudy 45 7 37 3 76 76 W 15 24 29.94 1014 30 48 N/A
9:50 am 09:50 Mostly Cloudy 45 7 37 3 76 76 W 20 31 29.97 1015 30 48 N/A
10:20 am 10:20 Mostly Cloudy 45 7 36 2 71 71 W 21 33 30.00 1016 30 48 N/A
10:42 am 10:42 Mostly Cloudy 45 7 36 2 71 71 W 17 28 30.03 1017 30 48 N/A
10:50 am 10:50 Mostly Cloudy 45 7 36 2 71 71 W 17 28 30.03 1017 30 48 N/A
11:20 am 11:20 Mostly Cloudy 45 7 34 1 66 66 W 20 31 30.06 1018 30 48 N/A
11:50 am 11:50 Mostly Cloudy 45 7 34 1 66 66 W 20 31 30.06 1018 30 48 N/A
12:20 pm 12:20 Mostly Cloudy 45 7 34 1 66 66 W 18 30 30.09 1019 30 48 N/A
12:50 pm 12:50 Partly Cloudy 46 8 34 1 62 62 W 20 31 30.09 1019 30 48 N/A
1:20 pm 13:20 Mostly Cloudy 45 7 32 0 61 61 W 22 35 30.09 1019 30 48 N/A
1:50 pm 13:50 Mostly Cloudy 45 7 32 0 61 61 W 17 28 30.12 1020 30 48 N/A
2:20 pm 14:20 Partly Cloudy 45 7 32 0 61 61 W 16 26 30.12 1020 30 48 N/A
2:50 pm 14:50 Mostly Cloudy 45 7 32 0 61 61 W 17 28 30.12 1020 30 48 N/A
3:20 pm 15:20 Partly Cloudy 45 7 32 0 61 61 W 17 28 30.12 1020 30 48 N/A
3:50 pm 15:50 Mostly Sunny 45 7 32 0 61 61 W 13 20 30.15 1021 30 48 N/A
4:20 pm 16:20 Partly Cloudy 43 6 32 0 66 66 W 14 22 30.15 1021 30 48 N/A
4:50 pm 16:50 Partly Cloudy 43 6 32 0 66 66 WSW 12 19 30.18 1022 30 48 N/A
5:20 pm 17:20 Mostly Clear 39 4 32 0 75 75 WSW 12 19 30.18 1022 7 11 N/A
5:50 pm 17:50 Mostly Clear 41 5 32 0 70 70 SW 10 17 30.18 1022 30 48 N/A

Powered by AerisWeather